Fitchburg, MA

5:40 PM EST on December 06, 2019 (GMT -0500)
Fitchburg Municipal

Weather History for KFIT - June, 2019

Change the Weather History Date:

Thursday, June 13, 2019

  Actual Average (KORH) Record (KORH)
Temperature  
Mean Temperature 54 °F -  
Max Temperature 59 °F 71 °F 92 °F (1984)
Min Temperature 50 °F 52 °F 41 °F (1979)
Degree Days  
Heating Degree Days 10    
Growing Degree Days 4 (Base 50)    
Moisture  
Dew Point 49 °F    
Average Humidity 87    
Maximum Humidity 96    
Minimum Humidity 62    
Precipitation  
Precipitation 0.37 in - - ()
Sea Level Pressure  
Sea Level Pressure 29.90 in    
Wind  
Wind Speed 4 mph ()    
Max Wind Speed 10 mph    
Max Gust Speed 22 mph    
Visibility 6.0 miles    
Events Rain    
Averages and records for this station are not official NWS values.
T = Trace of Precipitation, MM = Missing Value Source: Averaged Metar Reports

Daily Weather History Graph

Daily Weather History Graph

Search for Another Location

Airport or City:

Astronomy

Jun. 13, 2019 Rise Set
Actual Time 5:08 AM EDT 8:25 PM EDT
Civil Twilight 4:34 AM EDT 9:00 PM EDT
Nautical Twilight 3:49 AM EDT 9:45 PM EDT
Astronomical Twilight 2:54 AM EDT 10:40 PM EDT
Moon 4:31 PM EDT (6/13) 2:58 AM EDT (6/13)
Length of Visible Light 16h 26m
Length of Day
15h 16m
Waxing Gibbous, 85% of the Moon is Illuminated
Jun 13
Waxing Gibbous
Jun 17
Full
Jun 25
Last Quarter
Jul 2
New
Jul 9
First Quarter

Hourly Weather History & Observations

Time (EDT) Temp. Dew Point Humidity Pressure Visibility Wind Dir Wind Speed Gust Speed Precip Events Conditions
12:52 AM 59.0 °F 46.0 °F 62% 30.15 in 10.0 mi Calm Calm - N/A   Clear
1:52 AM 55.0 °F 46.9 °F 74% 30.13 in 10.0 mi Calm Calm - N/A   Clear
2:52 AM 52.0 °F 46.9 °F 83% 30.12 in 10.0 mi Calm Calm - N/A   Clear
3:52 AM 53.1 °F 48.0 °F 83% 30.10 in 10.0 mi Calm Calm - N/A   Clear
4:52 AM 54.0 °F 48.0 °F 80% 30.08 in 10.0 mi ESE 4.6 mph - N/A   Clear
5:52 AM 53.1 °F 48.9 °F 86% 30.08 in 10.0 mi Calm Calm - N/A   Clear
6:52 AM 55.0 °F 48.9 °F 80% 30.07 in 10.0 mi Calm Calm - N/A   Clear
7:52 AM 54.0 °F 50.0 °F 86% 30.06 in 10.0 mi ESE 4.6 mph - 0.00 in Rain Light Rain
8:52 AM 55.0 °F 50.0 °F 83% 30.05 in 10.0 mi Calm Calm - 0.01 in Rain Light Rain
9:52 AM 55.9 °F 50.0 °F 80% 30.05 in 10.0 mi Variable 3.5 mph - 0.00 in   Overcast
10:52 AM 55.9 °F 46.9 °F 72% 30.02 in 5.0 mi ESE 5.8 mph - 0.00 in Rain Light Rain
10:59 AM 55.9 °F 46.9 °F 72% 30.01 in 10.0 mi ESE 5.8 mph - 0.00 in   Overcast
11:28 AM 55.0 °F 50.0 °F 83% 30.00 in 2.5 mi ESE 5.8 mph - 0.01 in Rain Light Rain
11:40 AM 54.0 °F 51.1 °F 90% 30.00 in 1.5 mi East 4.6 mph - 0.02 in Rain Light Rain
11:52 AM 54.0 °F 51.1 °F 90% 30.00 in 1.2 mi ESE 5.8 mph - 0.03 in Rain Light Rain
12:30 PM 53.1 °F 50.0 °F 89% 29.98 in 2.0 mi Variable 5.8 mph - 0.08 in Rain Rain
12:36 PM 53.1 °F 50.0 °F 89% 29.97 in 2.5 mi NNE 9.2 mph - 0.09 in Rain Rain
12:45 PM 53.1 °F 50.0 °F 89% 29.96 in 3.0 mi NNE 8.1 mph - 0.12 in Rain Rain
12:52 PM 53.1 °F 50.0 °F 89% 29.96 in 3.0 mi NNE 9.2 mph - 0.14 in Rain Rain
1:17 PM 53.1 °F 50.0 °F 89% 29.92 in 5.0 mi NE 8.1 mph 17.3 mph 0.03 in Rain Light Rain
1:24 PM 53.1 °F 50.0 °F 89% 29.91 in 5.0 mi NNE 8.1 mph 17.3 mph 0.03 in Rain Light Rain
1:52 PM 53.1 °F 48.9 °F 86% 29.90 in 10.0 mi NE 8.1 mph - 0.05 in Rain Light Rain
2:10 PM 52.0 °F 48.9 °F 89% 29.88 in 1.8 mi NNE 8.1 mph - 0.01 in Rain Light Rain
2:35 PM 52.0 °F 48.9 °F 89% 29.86 in 2.0 mi NE 9.2 mph - 0.03 in Rain Light Rain
2:52 PM 52.0 °F 48.9 °F 89% 29.85 in 1.5 mi NE 8.1 mph - 0.05 in Rain Light Rain
3:04 PM 52.0 °F 48.9 °F 89% 29.84 in 2.0 mi Variable 6.9 mph - 0.01 in Rain Light Rain
3:23 PM 52.0 °F 48.9 °F 89% 29.82 in 4.0 mi NNE 9.2 mph - 0.01 in Rain Light Rain
3:37 PM 52.0 °F 48.9 °F 89% 29.81 in 1.8 mi Variable 6.9 mph - 0.03 in Rain Rain
3:49 PM 51.8 °F 48.2 °F 88% 29.81 in 2.0 mi North 8.1 mph - 0.06 in Rain Rain
3:52 PM 52.0 °F 48.9 °F 89% 29.82 in 1.8 mi North 4.6 mph - 0.07 in Rain Rain
4:07 PM 52.0 °F 48.9 °F 89% 29.80 in 2.5 mi NNE 10.4 mph - 0.01 in Rain Light Rain
4:52 PM 52.0 °F 48.9 °F 89% 29.79 in 3.0 mi NNE 5.8 mph 21.9 mph 0.02 in   Overcast
5:11 PM 52.0 °F 48.9 °F 89% 29.76 in 2.5 mi Variable 4.6 mph - N/A   Overcast
5:21 PM 52.0 °F 48.9 °F 89% 29.76 in 3.0 mi North 5.8 mph - N/A   Overcast
5:49 PM 51.8 °F 48.2 °F 88% 29.75 in 7.0 mi North 6.9 mph - N/A   Overcast
5:52 PM 52.0 °F 48.9 °F 89% 29.75 in 7.0 mi North 10.4 mph - N/A   Overcast
6:11 PM 52.0 °F 48.9 °F 89% 29.75 in 3.0 mi North 5.8 mph - N/A   Overcast
6:52 PM 52.0 °F 50.0 °F 93% 29.75 in 2.5 mi NNW 4.6 mph - N/A   Overcast
7:05 PM 52.0 °F 50.0 °F 93% 29.75 in 3.0 mi NW 8.1 mph - N/A   Overcast
7:50 PM 51.8 °F 50.0 °F 94% 29.76 in 10.0 mi NNW 5.8 mph - N/A   Overcast
7:52 PM 52.0 °F 50.0 °F 93% 29.77 in 10.0 mi NNW 5.8 mph - N/A   Overcast
8:42 PM 53.1 °F 50.0 °F 89% 29.77 in 10.0 mi WNW 5.8 mph - N/A   Overcast
8:52 PM 53.1 °F 50.0 °F 89% 29.79 in 10.0 mi WNW 4.6 mph - N/A   Overcast
9:52 PM 53.1 °F 48.9 °F 86% 29.79 in 10.0 mi NW 4.6 mph - N/A   Overcast
10:23 PM 52.0 °F 48.9 °F 89% 29.78 in 10.0 mi Calm Calm - N/A   Scattered Clouds
10:52 PM 50.0 °F 48.9 °F 96% 29.79 in 10.0 mi Calm Calm - N/A   Clear
11:52 PM 50.0 °F 48.0 °F 93% 29.78 in 10.0 mi SE 3.5 mph - N/A   Clear